Regional Weather Roundup
Issued by NWS

Home | Current Version | Previous Version | Graphics & Text | Print | Product List | Glossary On
Versions: 1 2 3 4 5 6 7 8 9 10 11 12 13 14 15 16 17 18 19 20 21 22 23 24 25 26 27 28 29 30 31 32 33 34 35 36 37 38 39 40 41 42 43 44 45 46 47 48 49 50
346
ASUS43 KLMK 300610
RWRKY
KENTUCKY REGIONAL WEATHER ROUNDUP
NATIONAL WEATHER SERVICE LOUISVILLE KY
200 AM EDT SAT APR 30 2016

NOTE "FAIR" INDICATES FEW OR NO CLOUDS BELOW 12,000 FEET
WITH NO SIGNIFICANT WEATHER AND/OR OBSTRUCTIONS TO VISIBILITY.

KYZ001>023-026-027-061>063-070>075-300700-
WESTERN AND SOUTH CENTRAL KENTUCKY

CITY           SKY/WX    TMP DP  RH WIND       PRES   REMARKS
PADUCAH        CLOUDY    61  57  87 E3        29.91S
HENDERSON      CLOUDY    61  52  72 E10       29.92F
OWENSBORO      CLOUDY    63  56  78 E9        29.94F
HOPKINSVILLE   CLOUDY    62  59  91 E3        29.92F
BOWLING GREEN  CLOUDY    64  56  75 NE7       29.94F
GLASGOW        CLOUDY    64  54  71 E9        29.95F
$$

KYZ024-025-028>034-038-045-046-053-300700-
NORTH CENTRAL KENTUCKY

CITY           SKY/WX    TMP DP  RH WIND       PRES   REMARKS
LOUISVILLE/SDF LGT RAIN  64  50  60 E7        30.00S
LOUISVILLE/LOU CLOUDY    64  49  57 SE6       30.02R
FORT KNOX      LGT RAIN  60  53  78 E8        29.96F
$$

KYZ035>037-039>044-047>052-055>060-089>105-300700-
NORTHEAST KENTUCKY

CITY           SKY/WX    TMP DP  RH WIND       PRES   REMARKS
LEXINGTON      CLOUDY    61  51  70 E9        30.03S
COVINGTON      CLOUDY    57  49  74 NE16      30.02F
FRANKFORT      CLOUDY    61  51  70 E13       30.01S
$$

KYZ054-064>069-076>088-106>120-300700-
SOUTHEAST KENTUCKY

CITY           SKY/WX    TMP DP  RH WIND       PRES   REMARKS
JACKSON        CLOUDY    60  51  72 VRB5      30.02F
LONDON         CLOUDY    63  50  62 NE5       30.02F
SOMERSET       CLOUDY    63  50  63 E3        30.01F
MIDDLESBORO    CLOUDY    61  56  84 CALM      30.02F
MONTICELLO     CLOUDY    64  55  72 NW3       30.01F
$$





USA.gov is the U.S. government's official web portal to all federal, state and local government web resources and services.